Location: Mentone
(34.5413°N, 85.5351°W)
Time: 19:45:42
(UTC-05:00)

Uosat F - Visible Passes

Search period start: 24 April 2014 00:00
Search period end: 04 May 2014 00:00
Orbit: 751 x 763 km, 98.7° (Epoch: 24 April)

Date Brightness Start Highest point End Pass type
(mag) Time Alt. Az. Time Alt. Az. Time Alt. Az.
24 Apr 12.8 04:04:10 10° NE 04:08:28 29° E 04:12:45 10° SSE visible
25 Apr 13.9 03:27:59 10° ENE 03:29:06 11° E 03:30:13 10° ESE visible
25 Apr 11.1 05:03:19 10° N 05:08:17 67° WNW 05:13:14 10° SSW visible
26 Apr 12.0 04:24:25 10° NNE 04:29:14 47° E 04:34:01 10° S visible
27 Apr 13.5 03:46:33 10° NE 03:49:58 18° E 03:53:23 10° SE visible
27 Apr 11.6 05:24:12 10° N 05:28:53 41° WNW 05:33:32 10° SW visible
28 Apr 11.2 04:44:55 10° NNE 04:49:56 78° ESE 04:54:56 10° S visible
29 Apr 12.8 04:06:25 10° NE 04:10:47 30° E 04:15:08 10° SSE visible
30 Apr 13.9 03:29:54 10° ENE 03:31:25 11° E 03:32:56 10° ESE visible
30 Apr 11.1 05:05:38 10° N 05:10:35 65° WNW 05:15:31 10° SSW visible
01 May 11.9 04:26:41 10° NNE 04:31:32 49° E 04:36:22 10° S visible
02 May 13.4 03:48:45 10° NE 03:52:17 19° E 03:55:48 10° SE visible
03 May 11.2 04:47:12 10° NNE 04:52:14 81° ESE 04:57:14 10° S visible
